Погода в Кировограде

Хотите узнать прогноз погоды в Кировограде? Тогда Вам сюда: Погода в Кировограде

Поиск расширенной информации на нашем сайте:

Полезная информация:

Новости сайта



02.01.2020
Опубликован Долгосрочный прогноз погоды по городам России и ближнего зарубежья на январь 2020 года.
Карты: Прогноз на январь и февраль 2020 года, Сравнение прогнозируемой аномалии приземной температуры воздуха на январь 2020 года по разным моделям.




Погода в Кировограде - сегодня

Время (UTC), дата Ветер
(°,м/с) 
Видим.   Явления Облачность Т
(°С)
Тd
(°С)
f(%) Тe
(°С)
Pmin
(гПа)
dP
(гПа)
Po
(мм)
O2
(г/м3)
Тmin Tmax R s Состояние
почвы
06 16.01.21 230 (ЮЗ) 10 км  {ливн. осадки}  10/10 1500 м 
[Sc]
-9.2 -12.1 79 -12  1014  0.1  744  311  -13.3    0.0     
09 16.01.21 250 (З) 10 км  слаб. ливневой снег  10/10 1200 м кучево-дожд. 
[Cb calv]
-8 -11.1 78 -11  1014.6  0.7  744  310           
12 16.01.21 240 (ЮЗ) 10 км  {ливн. осадки}  9/5 1200 м средняя 
[Sc|Ac trans]
-6.4 -10.9 70 -9  1014.1  -0.3  744  308           
15 16.01.21 320 (СЗ) 10 км  в посл. час ливневой снег  10/10 1080 м кучево-дожд. 
[Cb calv]
-11 -14.6 75 -14  1015.7  1.1  745  314           
18 16.01.21 310 (СЗ) 10 км  {ливн. осадки}  5/0 средняя 
[Ac trans]
-13.6 -18.1 69 -17  1017  1.1  746  318    -6.4  0.0     
21 16.01.21 330 (СЗ) 10 км    ясно 
-18.4 -21.7 75 -19  1018  0.5  746  324           
00 17.01.21 010 (С) 10 км    ясно 
-20.1 -22.7 80 -20  1017.4  -0.7  746  326           
03 17.01.21 310 (СЗ) 10 км    ясно 
-21.8 -24.3 80 -25  1017.1  -0.5  745  328           
06 17.01.21 320 (СЗ) 10 км    ясно 
-22.4 -24.9 80 -23  1017.1  745  329  -22.4      равномерный
сухой снег
100% 
12 17.01.21 340 (С) 10 км    4/0 верхняя 
[Ci fib]
-13.3 -18.1 67 -17  1015.6  -1.2  745  317           
15 17.01.21 тихо ()   10 км    6/0 верхняя 
[Ci fib]
-15.6 -19.8 70 -16  1015.9  0.1  745  320           
18 17.01.21 300 (СЗ) 10 км    ясно 
-17.7 -20.5 79 -18  1017.2  1.1  746  323           
21 17.01.21 290 (З) 5000 м  дымка  ясно 
-19.3 -21.2 85 -22  1017.9  0.6  746  325           
00 18.01.21 тихо ()   5000 м  дымка  ясно 
-21.6 -23.4 85 -22  1017.9  -0.3  746  328           
03 18.01.21 тихо ()   10 км    9/9 540 м 
[Sc]
-22.1 -24.6 80 -22  1017.9  746  329           
06 18.01.21 тихо ()   10 км    ясно 
-21.5 -23.6 83 -22  1018.9  747  328  -22.5      равномерный
сухой снег
100% 
09 18.01.21 330 (СЗ) 10 км    ясно 
-16 -18.8 79 -20  1019  0.6  747  321           
12 18.01.21 290 (З) 10 км  {снег}  6/6 540 м 
[Sc]
-14.2 -18.5 70 -19  1018.1  -0.7  747  319           
15 18.01.21 300 (СЗ) 10 км    3/0 средняя 
[Ac trans]
-16.4 -20.1 73 -19  1019.3  747  322           
18 18.01.21 290 (З) 10 км    6/6 660 м 
[Sc]
-18.2 -20.9 79 -22  1020.3  0.8  748  324    -14.2  0.0     
21 18.01.21 280 (З) 4000 м  снежные зёрна  10/10 240 м 
[St]
-16.2 -18.8 80 -20  1020.8  0.7  748  322           
00 19.01.21 290 (З) 10 км  в посл. час морось{снег}  10/10 450 м 
[St]
-15.6 -18.3 80 -19  1020.7  -0.1  748  321           
03 19.01.21 280 (З) 10 км    4/0 верхняя 
[Ci fib]
-17.2 -19.7 81 -20  1020.9  0.1  748  323           
06 19.01.21 290 (З) 10 км    9/9 1000 м 
[Sc]
-15.6 -18.6 78 -19  1021.4  0.6  749  322  -18.2    0.0  равномерный
сухой снег
100% 
09 19.01.21 290 (З) 10 км    8/3 1000 м средняя, верхняя 
[Sc|Ac trans|Ci fib]
-14.2 -17.7 75 -20  1021.8  0.5  749  320           
Время (UTC), дата Ветер
(°,м/с) 
Видим.   Явления Облачность Т
(°С)
Тd
(°С)
f(%) Тe
(°С)
Pmin
(гПа)
dP
(гПа)
Po
(мм)
O2
(г/м3)
Тmin Tmax R s Состояние
почвы

Для получения пояснительной информации подведите курсор к названию столбца.

ПОГОДА в Кировограде - архив

Всё, что Вы хотите узнать о погоде в Кировограде - удобно и подробно!

Выберите нужную дату (начиная с 1 января 2019* года) и нажмите кнопку "Найти".
Будут отображены архивные сводки погоды по пункту Кировоград, начиная с указанной даты.


Отображать данные в формате CSV (для использования в таблицах Excel)


Внимание! Наш архив погоды предназначен исключительно для личного некоммерческого использования в познавательных целях. Если Вам необходимы официальные справки о состоянии погоды (для производственных, юридических, коммерческих и т.п. целей), обращайтесь в органы Росгидромета.

*Примечание: данная дата относится к архиву по метеостанциям СССР (Россия, СНГ, Балтия).
Архив по метеостанциям Зарубежной Европы и Азии (кроме Китая) хранится 10 дней, по другим регионам земного шара (Китай, Африка, Америка, Австралия, Океания) - 1 день.

Кировоград - район местоположения метеостанции


Название, широта, долгота, высота метеостанции:
Кировоград 48.5°ш. 32.2°д. 171 м над ур. моря [Украина]

Дополнительная информация

В oтличие oт бoльшинства пoгoдных сайтoв мы публикуем пoдрoбную метеoинфoрмацию в детальнoм прoфессиoнальнoм фoрмате.

Характеристики температуры и влажнoсти вoздуха измеряются на высoте 2 м в тени вдали oт зданий и деревьев.
Скoрoсть ветра измеряется на высoте 10 м (на урoвне рoста челoвека скoрoсть ветра ниже в 1.5-2 раза). Если метеoстанция нахoдится в гoрoде или в лесу, тo скoрoсть ветра занижена на 2-4 м/с пo сравнению с oткрытым местoм. Скoрoсть ветра над акватoриями крупных рек и oзёр, а также на вершинах хoлмoв на 2-5 м/с выше, чем в oбычных услoвиях.
Атмoсфернoе давление в разных тoчках местнoсти мoжет значительнo oтличаться oт давления на метеoстанции, в зависимoсти oт услoвий рельефа (при пoдъёме на 10 м давление пoнижается примернo на 1 мм рт.ст.).